Location: Unspecified
(41.9031°N, 12.4386°E)
Time: 06:31:06
(UTC+01:00)

ISS - Pass Details

Date: 04 December 2019
Orbit: 411 x 421 km, 51.6° (Epoch: 15 December)

Event Time Altitude Azimuth Distance (km) Brightness Sun altitude
Rises 18:25:15 0° 308° (NW) 2,361 0.6 -19.1°
Reaches altitude 10° 18:27:38 10° 323° (NW) 1,499 -0.7 -19.5°
Enters shadow 18:29:22 20° 350° (N) 1,038 -1.8 -19.9°
